This is the latest recevied weather packets stored in our database for station/object KC5DAQ-27. If no packets are shown the sender has not sent any weather packets the latest 10 day(s).
| Time | Temp. | Humidity | Pressure | Rain* | Wind** | Luminosity | Snow |
|---|---|---|---|---|---|---|---|
| 1777472356 | 25.56° C | 92% | 1004 hPa | 0 mm | - | 222 W/m² | - |
| 1777472297 | 25.56° C | 92% | 1004 hPa | 0 mm | - | 229 W/m² | - |
| 1777472236 | 25.56° C | 92% | 1004 hPa | 0 mm | - | 232 W/m² | - |
| 1777472177 | 25.56° C | 92% | 1004 hPa | 0 mm | - | 232 W/m² | - |
| 1777472116 | 25.56° C | 92% | 1004 hPa | 0 mm | - | 223 W/m² | - |
| 1777472056 | 25.56° C | 92% | 1003.9 hPa | 0 mm | - | 202 W/m² | - |
| 1777471997 | 25.56° C | 92% | 1004 hPa | 0 mm | - | 178 W/m² | - |
| 1777471936 | 25.56° C | 93% | 1003.9 hPa | 0 mm | - | 181 W/m² | - |
| 1777471876 | 25.56° C | 93% | 1003.9 hPa | 0 mm | - | 202 W/m² | - |
| 1777471817 | 25.56° C | 93% | 1003.9 hPa | 0 mm | - | 222 W/m² | - |
| 1777471757 | 25.56° C | 93% | 1003.8 hPa | 0 mm | - | 234 W/m² | - |
| 1777471697 | 25.56° C | 93% | 1003.8 hPa | 0 mm | - | 234 W/m² | - |
| 1777471636 | 25.56° C | 93% | 1003.8 hPa | 0 mm | - | 227 W/m² | - |
| 1777471577 | 25.56° C | 93% | 1003.9 hPa | 0 mm | - | 222 W/m² | - |
| 1777471515 | 25.56° C | 93% | 1003.9 hPa | 0 mm | - | 225 W/m² | - |
| 1777471456 | 25.56° C | 93% | 1003.9 hPa | 0 mm | - | 209 W/m² | - |
| 1777471396 | 25° C | 93% | 1003.9 hPa | 0 mm | - | 211 W/m² | - |
| 1777471337 | 25° C | 93% | 1003.9 hPa | 0 mm | - | 209 W/m² | - |
| 1777471276 | 25° C | 93% | 1003.9 hPa | 0 mm | - | 202 W/m² | - |
| 1777471216 | 25° C | 93% | 1003.9 hPa | 0 mm | - | 199 W/m² | - |
| 1777471157 | 25° C | 94% | 1003.9 hPa | 0 mm | - | 197 W/m² | - |
| 1777471096 | 25° C | 94% | 1003.7 hPa | 0 mm | - | 183 W/m² | - |
| 1777471035 | 25° C | 94% | 1003.8 hPa | 0 mm | - | 181 W/m² | - |
| 1777470976 | 25° C | 93% | 1003.7 hPa | 0 mm | - | 185 W/m² | - |
| 1777470918 | 25° C | 94% | 1003.6 hPa | 0 mm | - | 199 W/m² | - |
* Rain latest hour (hover to see other rain measurements)
** Current wind speed in m/s (hover to see current wind gust speed)